This is the latest recevied weather packets stored in our database for station/object M0ADS. If no packets are shown the sender has not sent any weather packets the latest 10 day(s).
| Time | Temp. | Humidity | Pressure | Rain* | Wind** | Luminosity | Snow |
|---|---|---|---|---|---|---|---|
| 1777601040 | 6.11° C | 81% | 1020.9 hPa | 0 mm | - | - | - |
| 1777600140 | 6.11° C | 80% | 1021 hPa | 0 mm | - | - | - |
| 1777599240 | 6.67° C | 80% | 1021 hPa | 0 mm | - | - | - |
| 1777598338 | 6.67° C | 79% | 1021.3 hPa | 0 mm | - | - | - |
| 1777597436 | 6.67° C | 79% | 1021.3 hPa | 0 mm | - | - | - |
| 1777596537 | 6.67° C | 78% | 1021.4 hPa | 0 mm | - | - | - |
| 1777595634 | 7.22° C | 76% | 1021.5 hPa | 0 mm | - | - | - |
| 1777594734 | 7.22° C | 75% | 1021.6 hPa | 0 mm | - | - | - |
| 1777593834 | 7.78° C | 74% | 1021.6 hPa | 0 mm | - | - | - |
| 1777592934 | 7.78° C | 73% | 1021.7 hPa | 0 mm | - | - | - |
| 1777592032 | 8.33° C | 72% | 1021.8 hPa | 0 mm | - | - | - |
| 1777591131 | 8.33° C | 70% | 1021.8 hPa | 0 mm | - | - | - |
| 1777590232 | 8.89° C | 68% | 1021.8 hPa | 0 mm | - | - | - |
| 1777589330 | 9.44° C | 66% | 1021.8 hPa | 0 mm | - | - | - |
| 1777588427 | 10° C | 65% | 1021.9 hPa | 0 mm | - | - | - |
| 1777587527 | 10.56° C | 63% | 1021.8 hPa | 0 mm | - | - | - |
| 1777586626 | 10.56° C | 62% | 1021.9 hPa | 0 mm | - | - | - |
| 1777585725 | 10.56° C | 62% | 1021.7 hPa | 0 mm | - | - | - |
| 1777584826 | 11.11° C | 60% | 1021.7 hPa | 0 mm | - | - | - |
| 1777583923 | 11.67° C | 58% | 1021.9 hPa | 0 mm | - | - | - |
| 1777583023 | 12.22° C | 55% | 1021.8 hPa | 0 mm | - | - | - |
| 1777582124 | 12.22° C | 54% | 1021.8 hPa | 0 mm | - | - | - |
| 1777581224 | 12.78° C | 53% | 1021.6 hPa | 0 mm | - | - | - |
| 1777580321 | 12.78° C | 51% | 1021.5 hPa | 0 mm | - | - | - |
| 1777579421 | 13.33° C | 50% | 1021.5 hPa | 0 mm | - | - | - |
* Rain latest hour (hover to see other rain measurements)
** Current wind speed in m/s (hover to see current wind gust speed)